Flag Weather past 2 weeks in Caguas, Puerto Rico

Now
80 °F

Clear.


Feels Like: 85 °F
Forecast: 75 / 90 °F
Wind: No wind

Location: Luis Munoz Marin

Current Time: Nov 1, 2014 at 12:51:50 AM

Latest Report: Oct 31, 2014 at 11:56 PM


Visibility: 10 mi

Pressure: 29.93 "Hg

Humidity: 87%

Dew point: 76 °F

Location of CaguasLocation

Historic Weather in Caguas — Graph

°F

Caguas temperature yesterday

Maximum temperature yesterday: 87 °F (at 9:56 AM)
Minimum temperature yesterday: 79 °F (at 12:56 AM)
Average temperature yesterday: 82 °F

Past Weeks' High & Low Weather Summary

 TemperatureHumidityPressure
High93 °F (Oct 28, 9:56 AM)100% (Oct 30, 8:56 PM)30.01 "Hg (Oct 30, 8:56 PM)
Low77 °F (Oct 23, 5:56 AM)52% (Oct 26, 11:56 AM)29.77 "Hg (Oct 30, 3:56 PM)
Average84 °F77%29.91 "Hg
* Reported Oct 16 10:56 PM — Oct 31 10:56 PM, Caguas, Weather by CustomWeather, © 2014

Note: Actual official high and low records may vary slightly from our data, if they occured in-between our weather recording intervals... More about our weather records

Advertising

Caguas weather history for previous 24 hours

 ConditionsComfort  
Time TempWeatherWind HumidityBarometerVisibility
10:56 PM
Oct 31
81 °FClear.No wind85%29.93 "Hg10 mi
9:56 PM81 °FPassing clouds.No wind85%29.93 "Hg10 mi
8:56 PM82 °FPassing clouds.No wind82%29.92 "Hg10 mi
7:56 PM82 °FPassing clouds.3 mph79%29.90 "Hg10 mi
6:56 PM82 °FPassing clouds.5 mph79%29.88 "Hg10 mi
5:56 PM83 °FSunny.No wind74%29.87 "Hg10 mi
4:56 PM85 °FScattered clouds.6 mph68%29.85 "Hg10 mi
3:56 PM85 °FScattered clouds.9 mph72%29.85 "Hg10 mi
2:56 PM83 °FPartly sunny.5 mph82%29.86 "Hg10 mi
1:56 PM82 °FBroken clouds.3 mph85%29.85 "Hg10 mi
12:56 PM80 °FThunderstorms. Broken clouds.6 mph90%29.88 "Hg10 mi
11:56 AM87 °FLight rain. Scattered clouds.13 mph72%29.88 "Hg10 mi
10:56 AM87 °FScattered clouds.12 mph77%29.89 "Hg10 mi
9:56 AM87 °FScattered clouds.5 mph67%29.90 "Hg10 mi
8:56 AM85 °FScattered clouds.6 mph75%29.88 "Hg10 mi
7:56 AM83 °FScattered clouds.No wind79%29.86 "Hg10 mi
6:56 AM79 °FPassing clouds.6 mph90%29.85 "Hg10 mi
5:56 AM80 °FPassing clouds.3 mph87%29.84 "Hg10 mi
4:56 AM79 °FPassing clouds.3 mph90%29.80 "Hg10 mi
3:56 AM79 °FPassing clouds.No wind90%29.81 "Hg10 mi
2:56 AM79 °FPassing clouds.No wind90%29.80 "Hg10 mi
1:56 AM79 °FPassing clouds.No wind90%29.82 "Hg10 mi
12:56 AM79 °FPassing clouds.5 mph90%29.84 "Hg10 mi
Weather by CustomWeather, © 2014

See weather overviewHow to use our weather pages